Showing default

COSMOS 2139 (GLONASS), 21216

Orbit data source: Space-Track

COSMOS 2139 (GLONASS), 21216 is a payload satellite owned by UNKS RF (CIS) in MEO that was launched on Thu, 04 Apr 1991 UTC via a PROTON-K/DM-2 launch vehicle from the Tyuratam Missile And Space Complex (TTMTR). Payload-class satellites include a variety of spacecraft equipped with specific instruments for various scientific and technological missions. These include communications satellites like Starlink; space stations such as the ISS; scientific satellites like the Hubble; Earth observation satellites from companies like Planet Labs, Umbra, and HawkEye 360; GPS; miniature CubeSats for education and research; and military/defense satellites.

Loading next visibility...
Identifier
21216, 1991-025A
Orbit
MEO
Country
Flag of CISCIS
Related business
Manufacturer
Polyot
Mission
Non-operational Defense Navigation
Bus & Motor
URAGAN, Unknown motor
Mass
1,300 kg wet, ~1,200 kg dry
Launch date (UTC)
1991-04-04 (35 years ago)
Launch vehicle
PROTON-K/DM-2
Launch site
Tyuratam Missile And Space Complex (TTMTR)
Object type
Payload
Rocket body
Debris
Shape & HBR
Cyl + 2 Pan, 4.2 m
Radar Cross Section
14.707 m², Large (>1 m²)

Expand to show TLE details & history
Last TLE update: 5 days ago

TLE from 5 days ago
0 COSMOS 2139 (GLONASS)
1 21216U 91025A   26168.89191860 -.00000050  00000-0  00000+0 0  9999
2 21216  64.3628 304.3816 0016625 219.8718 139.9983  2.13105796273945
Epoch: 2026-06-17T21:24Z
TLE epoch observation values (Epoch: 2026-06-17T21:24:21.767Z)
Latitude
0.00004°
Longitude
77.13064°
Altitude
19,162.62 km
Speed
3.948 km/s
True Right ascension
20h 17m 27s
True Declination
0° 00' 00"
Sunlit
Object was in daylight at epoch
Visualization orbit readout
Latitude
Unknown
Longitude
Unknown
Altitude
Unknown
Speed
Unknown
Apparent Right ascension
Unknown
Apparent Declination
Unknown
Sunlit
N/A
Visualization observer readout
Local Sidereal Time
02:00:08
Azimuth
Unknown
Elevation
Unknown
Doppler factor
Unknown
Orbital elements
Apogee altitude
19,171.628 km
Perigee altitude
19,086.816 km
Semi-major axis
25,507.359 km
Eccentricity
0.00166
Inclination
64.3628°
RAAN
304.3816°
Arg. of periapsis
219.8718°
True anomaly
140.12057°
Mean anomaly
139.9983°
Eccentric anomaly
140.05945°
Mean motion
0.53278 °/min
Orbital period
675.71 mins
BSTAR
0
Loading maneuver chart data...
Computing Atmospheric mass density...
Loading historical data...
Loading historical data...
Loading historical data...
Loading historical data...
Loading historical data...
Loading historical data...
Loading historical data...

Documentation

Showing up to 5 results
|